www.pogodaiklimat.ru

Погода и климат >> Архив погоды >> Индия >> округ Дели >> Нью-Дели


АРХИВ ПОГОДЫ в Нью-Дели

Время (UTC), дата Ветер
(напр.,м/с)
 
Видим.   Явления Облачность Т
(С)
Тd
(С)
f
(%)
Тe
(С)
Тes
(С)
Комфортность P
(гПа)
Po
(гПа)
Тmin
(С)
Tmax
(С)
R
(мм)
R24
(мм)
S
(см)
21 10.06 ЮЗ 4 2000 м мгла 3/0
[Ac trans]
+32.4 +21.1 51 +40 +40 очень
душно
995.0 971.2
00 11.06 З 4 2000 м мгла 3/0
[Ac trans]
+33.4 +20.9 48 +41 +41 опасность
перегрева
995.2 971.5
03 11.06 С 1 2000 м мгла 5/3 1200 м
[Sc Ac trans]
+36.4 +18.1 34 +40 +46 очень
душно
997.1 973.6 +30.4 +45.6
06 11.06 С 6 2000 м пыльный позёмок 5/3 1200 м
[Sc Ac trans]
+40.2 +14.6 22 +41 +46 опасность
перегрева
996.3 973.1
09 11.06 С 4 1000 м пыль 6/4 1050 м
[Cb calv Ac trans]
+44.4 +12.2 15 +44 +50 опасность
перегрева
994.3 971.5
12 11.06 З 2 2000 м мгла 3/0
[Ac trans]
+44.2 +15.4 19 +45 +48 опасность
перегрева
992.3 969.5 +44.5
15 11.06 штиль 0 2000 м мгла 8/4 1200 м
[Sc Ac trans]
+37.0 +19.7 37 +43 +43 опасность
перегрева
994.4 971.0
18 11.06 Ю 1 2000 м мгла 3/0
[Ac trans]
+35.4 +19.1 38 +40 +40 очень
душно
995.8 972.3
21 11.06 С 2 2000 м мгла 6/4 1200 м
[Sc Ac trans]
+34.6 +19.2 40 +40 +40 очень
душно
996.6 973.0
00 12.06 В 2 2000 м мгла 3/0
[Ac trans]
+32.4 +20.4 49 +39 +39 очень
душно
997.5 973.7
03 12.06 В 4 2000 м мгла 3/0
[Ac trans]
+33.6 +20.8 47 +41 +45 опасность
перегрева
1000.7 976.9 +31.0 +44.5
06 12.06 В 7 2000 м мгла 5/3 1200 м
[Sc Ac trans]
+37.8 +20.4 36 +44 +47 опасность
перегрева
999.9 976.4
09 12.06 В 2 2000 м мгла ясно +40.0 +21.4 34 +47 +63 опасность
перегрева
997.7 974.5
12 12.06 В 2 2000 м мгла 5/3 1050 м
[Cb calv Ac trans]
+40.2 +20.6 32 +46 +48 опасность
перегрева
994.8 971.6 +41.6
15 12.06 Ю 5 2000 м мгла 8/4 900 м
[Cb calv Ac trans]
+30.0 +20.3 56 +37 +37 очень
душно
997.9 973.9 0.0
18 12.06 СВ 2 2000 м мгла 6/4 900 м
[Cb calv Ac trans]
+30.0 +21.0 59 +38 +38 очень
душно
999.6 975.6
21 12.06 С 3 2000 м мгла 6/4 900 м
[Cb calv Ac trans]
+30.2 +21.3 59 +38 +38 очень
душно
998.9 974.9
00 13.06 штиль 0 2000 м мгла 6/4 1050 м
[Sc Ac trans]
+29.8 +21.5 61 +38 +38 очень
душно
998.7 974.7
03 13.06 С 3 2000 м мгла ясно +34.2 +20.1 44 +41 +48 опасность
перегрева
1000.8 977.0 +29.0 +41.6
06 13.06 ЮЗ 3 2000 м мгла 5/3 1200 м
[Sc Ac trans]
+38.6 +19.5 33 +43 +54 опасность
перегрева
1000.2 976.8
12 13.06 З 3 4000 м мгла 3/0
[Ac trans]
+40.8 +22.1 34 +48 +50 опасность
перегрева
995.5 972.4 +41.2
15 13.06 Ю 1 4000 м мгла 3/0
[Ac trans]
+37.6 +21.9 40 +45 +45 опасность
перегрева
996.2 972.8
18 13.06 ЮЗ 3 2000 м мгла 3/0
[Ac trans]
+35.4 +19.1 38 +40 +40 очень
душно
998.1 974.5
21 13.06 З 4 2000 м мгла 3/0
[Ac trans]
+32.6 +19.6 46 +38 +38 очень
душно
998.0 974.2
00 14.06 ЮЗ 2 2000 м мгла ясно +31.2 +19.7 50 +37 +37 очень
душно
997.9 974.0
03 14.06 З 5 2000 м мгла ясно +34.2 +20.5 45 +41 +45 опасность
перегрева
999.3 975.6 +29.6 +41.2
06 14.06 З 7 2000 м мгла ясно +40.0 +16.1 25 +42 +48 опасность
перегрева
998.2 974.9
09 14.06 З 4 4000 м мгла ясно +42.6 +13.7 18 +42 +55 опасность
перегрева
995.9 972.9
12 14.06 З 4 4000 м мгла ясно +41.4 +10.9 16 +40 +42 очень
жарко
994.2 971.1 +41.4
15 14.06 штиль 0 4000 м мгла ясно +34.4 +17.7 37 +38 +38 очень
душно
996.3 972.7
18 14.06 штиль 0 2000 м мгла ясно +30.6 +19.3 51 +36 +36 очень
душно
997.4 973.5
21 14.06 штиль 0 2000 м мгла ясно +29.2 +19.4 56 +35 +35 очень
душно
996.7 972.7
00 15.06 З 1 2000 м мгла 3/0
[Ac trans]
+28.8 +15.9 46 +32 +32 душно 997.7 973.6
03 15.06 З 3 2000 м мгла 4/0
[Ac trans]
+33.8 +16.5 36 +37 +43 очень
душно
998.7 975.0 +27.8 +43.7
06 15.06 З 5 2000 м мгла ясно +40.4 +13.4 20 +40 +53 опасность
солнечного
удара
997.9 974.7
09 15.06 З 4 2000 м мгла 5/3 1200 м
[Sc Ac trans]
+42.6 +16.1 22 +44 +51 опасность
перегрева
995.5 972.5
12 15.06 З 3 2000 м пыль 5/3 1200 м
[Sc Ac trans]
+42.2 +15.5 21 +43 +45 опасность
перегрева
993.2 970.2 +43.4
15 15.06 ЮЗ 5 2000 м мгла 6/3 1200 м
[Sc Ac trans]
+37.8 +16.3 28 +40 +40 очень
душно
996.0 972.6
18 15.06 З 7 2000 м мгла 8/5 1200 м
[Sc Ac trans]
+35.4 +17.9 36 +39 +39 очень
душно
998.1 974.5
21 15.06 З 10 1000 м пыльный позёмок 10/5 1050 м
[Cb calv As op]
+33.0 +18.6 43 +38 +38 очень
душно
999.0 975.2
00 16.06 З 3 2000 м мгла 5/3 1200 м
[Sc Ac trans]
+29.4 +20.0 57 +36 +36 очень
душно
998.2 974.1 0.0
03 16.06 З 5 2000 м мгла 6/4 1050 м
[Cb calv Ac trans]
+31.2 +20.7 54 +38 +41 очень
душно
999.8 975.8 +28.2 +43.4 0.0
06 16.06 З 6 2000 м морось 10/6 750 м
[Cb calv As op]
+28.4 +23.5 75 +39 +39 очень
душно
1001.0 976.8 0.2
09 16.06 З 3 2000 м мгла {дождь} 6/4 1200 м
[Sc Ac trans]
+33.8 +20.4 45 +40 +47 очень
душно
999.6 975.8 0.6
12 16.06 З 6 4000 м мгла 5/3 1200 м
[Sc Ac trans]
+35.6 +20.5 41 +42 +43 опасность
перегрева
997.4 973.8 +36.3 0.6
15 16.06 ЮЗ 5 2000 м мгла 5/3 1200 м
[Sc Ac trans]
+32.4 +22.4 56 +42 +42 опасность
перегрева
999.1 975.3 0.6
18 16.06 З 4 2000 м мгла 5/3 1200 м
[Sc Ac trans]
+31.2 +23.7 64 +42 +42 опасность
перегрева
999.6 975.6 0.6
21 16.06 З 3 2000 м мгла 6/4 1200 м
[Sc Ac trans]
+31.2 +20.7 54 +38 +38 очень
душно
998.0 974.1 0.6
00 17.06 З 3 2000 м мгла 6/4 1200 м
[Sc Ac trans]
+29.2 +20.1 58 +36 +36 очень
душно
998.2 974.1 0.6
03 17.06 ЮЗ 4 2000 м мгла 6/4 1050 м
[Sc Ac trans]
+32.4 +21.8 54 +41 +44 опасность
перегрева
999.7 975.8 +28.0 +36.3 0.6
06 17.06 З 7 2000 м пыльный позёмок 6/4 1050 м
[Cb calv Ac trans]
+30.4 +20.5 55 +37 +40 очень
душно
1000.3 976.3
09 17.06 З 7 2000 м мгла 8/4 1050 м
[Cb calv Ac trans]
+32.0 +18.5 45 +37 +39 очень
душно
999.0 975.1 0.0
12 17.06 З 5 2000 м мгла 10/6 1050 м
[Cb calv Ac trans]
+31.0 +19.4 50 +37 +37 очень
душно
996.9 973.0 +33.3 0.0
18 17.06 СВ 3 2000 м в посл. час гроза {дождь} 9/5 900 м
[Cb calv Ac trans]
+25.6 +22.0 81 +33 +33 очень
душно
1001.8 977.3 0.4

 

Местоположение метеостанции Нью-Дели (округ Дели, Индия): широта 28.58 долгота 77.20 высота над уровнем моря 216 м.

В архиве по умолчанию представлена погода в Нью-Дели за последнюю неделю. Архивные данные за месяц целиком и за предыдущие месяцы, начиная с января 2011 года, Вы можете получить, выбрав интересующий диапазон дат из раскрывающегося списка и нажав кнопку "Ввод!".


*Определитесь, кто Вы:
робот инопланетянин человек

Внимание! Время в таблицах - всемирное. Для получения местного времени необходимо прибавить поправку, которая равна 5.5 ч.

Смотрите также архив погоды в соседних городах и на ближайших метеорологических станциях:

Погода в Нью-Дели аэропорт (округ Дели, Индия) (8 км)
Погода в Ридже (округ Дели, Индия) (10 км)
Погода в Нью-Дели Айя Нагар (округ Дели, Индия) (13 км)
Погода в Рохтаке (Харьяна, Индия) (67 км)
Погода в Мератхе (Уттар-Прадеш, Индия) (70 км)
Погода в Карнале (Харьяна, Индия) (126 км)
Погода в Хисаре (Харьяна, Индия) (157 км)
Погода в Пилани (Раджастхан, Индия) (161 км)
Погода в Нейджибабаде (Уттар-Прадеш, Индия) (163 км)
Погода в Агре (Уттар-Прадеш, Индия) (176 км)

Пояснения к столбцам:

Ветер - указаны скорость ветра в м/с - средняя за 10 мин, порывы в срок и между сроками (в фигурных скобках) и направление, откуда дует ветер: С - северный, СВ - северо-восточный, В - восточный, ЮВ - юго-восточный, Ю - южный, ЮЗ - юго-западный, З - западный, СЗ - северо-западный.
Видимость - горизонтальная дальность видимости в метрах или километрах. При видимости от 1 до 10 км при отсутствии осадков обычно наблюдается дымка, при ухудшении видимости до 1 км и менее - туман. В сухую погоду видимость может ухудшаться дымом, пылью или мглою.
Явления - указаны атмосферные явления, наблюдавшиеся в срок или в последний час перед сроком; фигурными скобками обозначены явления, наблюдавшиеся между сроками (за 1-3 часа до срока); квадратными скобками обозначены град или гололедные отложения с указанием их диаметра в мм.
Облачность - указаны через наклонную черту общая и нижняя облачность в баллах и высота нижней границы облаков в метрах; квадратными скобками обозначены формы облаков: Ci - перистые, Cs - перисто-слоистые, Cc - перисто-кучевые, Ac - высококучевые, As - высокослоистые, Sc - слоисто-кучевые, Ns - слоисто-дождевые, Cu - кучевые, Cb - кучево-дождевые. Подробнее классификацию облаков см. в Атласе облаков (PDF).
T - Температура воздуха - температура, измеренная на высоте 2 м над землей.
Td - Температура точки росы - температура, при понижении до которой содержащийся в воздухе водяной пар достигнет насыщения.
f - Относительная влажность воздуха - влажноcть воздуха, измеренная на высоте 2 м над землей.
Te - Эффективная температура - температура, которую ощущает одетый по сезону человек в тени. Характеристика душности погоды. При расчете учитывается влияние влажности воздуха и скорости ветра на теплоощущения человека.
Tes - Эффективная температура на солнце - температура, которую ощущает человек, с поправкой на солнечный нагрев. Характеристика знойности погоды. Зависит от высоты солнца над горизонтом, облачности и скорости ветра. Ночью, в пасмурную погоду, а также при ветре 12 м/с и более поправка равна нулю.
P - Атмосферное давление - приведенное к уровню моря атмосферное давление.
Po - Атмосферное давление - измеренное на уровне метеостанции атмосферное давление.
Tmin - Минимальная температура - минимум температуры воздуха на высоте 2 м над землей.
Tmax - Максимальная температура - максимум температуры воздуха на высоте 2 м над землей.
R - Количество осадков - Количество выпавших осадков за период времени, мм. При наведении курсора мыши на число - период времени, за который выпало указанное количество осадков.
R24 - Количество осадков - Количество выпавших осадков за 24 часа, мм.
S - Снежный покров - Высота снежного покрова, см. При наведении курсора мыши на число - состояние снежного покрова и степень покрытия местности в баллах.